CZ-6A DEB, 61475

Orbit data source: Space-Track

CZ-6A DEB, 61475 is space debris in LEO originally from a launch on Tue, 06 Aug 2024 UTC launched from the Taiyaun Space Center, China (TSC). Debris objects in space refer to the collection of defunct objects orbiting the Earth. Examples of debris include non-operational satellites, rocket bodies, and fragments generated from explosions, collisions, or faulty payload assembly.

Loading next visibility...
CZ-6A DEB details
Identifier
61475, 2024-140AAH
Orbit
LEO
Last TLE update13 hours ago
Origin
Flag of CNCNSA (CN / PRC)
ManufacturerSAST
MissionSpacecraft
Bus & MotorUnknown
MassUnknown
Launch date (UTC)
2024-08-06 (6 months ago)
Launch vehicleUnknown
Launch site
Taiyaun Space Center, China (TSC)
Object type
Payload
Rocket body
Debris
Shape & HBRUnknown
Radar Cross SectionSmall (<0.1 m²)

Expand to show TLE details & history

TLE from 13 hours ago
0 CZ-6A DEB
1 61475U 24140AAH 25035.73637228  .00001192  00000-0  12716-2 0  9999
2 61475  88.3882 321.3338 0437438  59.7425 304.6264 13.38402455 20536
Epoch: 2025-02-04T17:40Z
Definitive object data (Epoch: 2025-02-04T17:40:22.564Z)
Latitude-0.00011°
Longitude-78.8976°
Altitude941.952 km
Speed7.467 km/s
True Right ascension21h 25m 20s
True Declination0° 00' 00"
Sunlit
Object was in daylight at TLE epoch
Visualization TLE readout
Latitude73.99401°
Longitude95.416°
Altitude900.076 km
Speed7.521 km/s
Apparent Right ascension20h 33m 35s
Apparent Declination45° 04' 18"
Sunlit
Object is in full shadow
Visualization observer readout
Local Sidereal Time08:45:28
Azimuth2.106° NNE
Elevation-4.97°
Doppler factor1
Orbital elements
Apogee altitude1,439.962 km
Perigee altitude784.641 km
Semi-major axis7,490.438 km
Eccentricity0.0437438
Inclination88.3882°
RAAN321.3338°
Arg. of periapsis59.7425°
True anomaly300.37343°
Mean anomaly304.6264°
Eccentric anomaly302.51288°
Mean motion3.34798 °/min
BSTAR0.0012716
Orbital period107.53 mins
Loading maneuver chart data...
Loading historical data...
Loading historical data...
Loading historical data...
Loading historical data...
Loading historical data...
Loading historical data...
Loading historical data...

CZ-6A DEB Visibility forecast

Observer location: undefined°, undefined

Span
Click to sort rows by Start time (UTC) header in descending order
Start Az.
Max El. time (UTC)
Max El. Az.
Max El.
End time (UTC)
End Az.
12 mins2025-02-05 06:47:15.445Z8.831° NNE2025-02-05 06:53:15.445Z96.357° ESE40.721°2025-02-05 06:59:15.445Z166.033° S
7 mins2025-02-05 08:37:15.445Z316.405° NNW2025-02-05 08:40:15.445Z282.333° WNW19.415°2025-02-05 08:44:15.445Z242.397° WSW
8 mins2025-02-05 18:55:15.445Z151.795° SSE2025-02-05 18:58:15.445Z100.725° ESE36.893°2025-02-05 19:03:15.445Z12.281° NNE
4 mins2025-02-05 20:45:15.445Z263.661° W2025-02-05 20:46:15.445Z276.765° WNW15.235°2025-02-05 20:49:15.445Z314.62° NW
10 mins2025-02-06 06:08:15.445Z29.803° NE2025-02-06 06:12:15.445Z80.221° E27.642°2025-02-06 06:18:15.445Z142.908° SSE
|